This demonstration page uses our WeatherBlox Daily Observations layout. Learn more.

Left ArrowRight Arrow

34.74481, -87.66753

Hourly Observations for April 6, 2015

Temp ( °F °C ) Dew Point ( °F °C ) Humidity (%) Winds ( mph kmh ) Pressure ( in mb ) Visibility ( mi km ) Precip ( " mm )
12:53 am 00:53 Cloudy 56 13.3 47 8.3 72 72 E 3 6 30.11 1020 10 16 0.00 0.00
1:53 am 01:53 Cloudy 55 12.8 47 8.3 74 74 ESE 3 6 30.11 1020 10 16 0.00 0.00
2:53 am 02:53 Cloudy 57 13.9 47 8.3 69 69 Calm 30.11 1020 10 16 0.00 0.00
3:53 am 03:53 Cloudy 57 13.9 46 7.8 67 67 Calm 30.12 1020 10 16 0.00 0.00
4:53 am 04:53 Cloudy 56 13.3 48 8.9 75 75 E 3 6 30.12 1020 10 16 0.00 0.00
5:53 am 05:53 Cloudy 57 13.9 48 8.9 72 72 Calm 30.13 1020 10 16 0.00 0.00
6:53 am 06:53 Cloudy 57 13.9 47 8.3 69 69 ESE 5 7 30.13 1020 10 16 0.00 0.00
7:53 am 07:53 Cloudy 59 15 47 8.3 64 64 E 5 7 30.14 1021 10 16 0.00 0.00
8:53 am 08:53 Cloudy 62 16.7 47 8.3 58 58 SE 8 13 30.13 1020 10 16 0.00 0.00
9:34 am 09:34 Cloudy with Heavy Rain 62 16.7 51 10.6 67 67 SSE 6 9 30.12 1020 2 2 0.08 2.03
9:43 am 09:43 Cloudy with Light Rain 61 16.1 53 11.7 75 75 ESE 7 11 30.15 1021 3 5 0.09 2.29
9:53 am 09:53 Cloudy 63 17.2 53 11.7 70 70 SSE 6 9 30.15 1021 10 16 0.09 2.29
10:35 am 10:35 Cloudy with Light Rain 63 17.2 53 11.7 70 70 SSE 8 13 30.12 1020 7 11 0.00 0.03
10:53 am 10:53 Cloudy with Heavy Rain 62 16.7 55 12.8 78 78 S 6 9 30.15 1021 3 4 0.04 1.02
11:14 am 11:14 Cloudy 61 16.1 57 13.9 87 87 SSE 8 13 30.15 1021 8 13 0.04 1.02
11:22 am 11:22 Cloudy with Light Rain 62 16.7 57 13.9 84 84 SE 7 11 30.12 1020 5 8 0.05 1.27
11:53 am 11:53 Cloudy with Light Rain 62 16.7 58 14.4 86 86 SSE 8 13 30.13 1020 6 10 0.07 1.78
12:04 pm 12:04 Cloudy with Light Rain 62 16.7 58 14.4 86 86 SSE 10 17 30.09 1019 5 8 0.02 0.51
12:51 pm 12:51 Cloudy with Strong Thunderstorms 63 17 59 15 88 88 Calm 30.12 1020 2 3 0.06 1.52
12:53 pm 12:53 Cloudy with Strong Thunderstorms 62 16.7 59 15 90 90 Calm 30.13 1020 2 2 0.08 2.03
1:02 pm 13:02 Cloudy with Heavy Rain 62 16.7 59 15 90 90 SSE 3 6 30.09 1019 1 1 0.20 5.08
1:18 pm 13:18 Cloudy with Heavy Rain 62 16.7 60 15.6 93 93 Calm 30.12 1020 1 2 0.32 8.13
1:53 pm 13:53 Cloudy with Light Rain 62 16.7 60 15.6 93 93 Calm 30.14 1021 2 3 0.45 11.43
2:27 pm 14:27 Cloudy with Light Rain 62 16.7 60 15.6 93 93 E 6 9 30.12 1020 2 3 0.06 1.52
2:37 pm 14:37 Cloudy with Mist and Fog 63 17.2 60 15.6 90 90 E 6 9 30.09 1019 3 5 0.06 1.52
2:53 pm 14:53 Cloudy with Mist and Fog 63 17.2 60 15.6 90 90 ESE 3 6 30.12 1020 4 6 0.06 1.52
3:09 pm 15:09 Cloudy with Light Rain 63 17.2 61 16.1 93 93 E 3 6 30.09 1019 4 6 0.00 0.03
3:18 pm 15:18 Cloudy with Mist and Fog 63 17.2 61 16.1 93 93 Calm 30.09 1019 5 8 0.00 0.03
3:53 pm 15:53 Cloudy with Mist and Fog 64 17.8 61 16.1 90 90 ESE 6 9 30.10 1019 4 6 0.01 0.25
3:55 pm 15:55 Cloudy with Mist and Fog 64 17.8 61 16.1 90 90 ESE 7 11 30.09 1019 4 6 0.00 0.00
4:38 pm 16:38 Cloudy with Rain 64 17.8 61 16.1 90 90 ESE 3 6 30.09 1019 3 4 0.06 1.52
4:48 pm 16:48 Cloudy with Light Rain 64 18 63 17 94 94 E 3 6 30.09 1019 4 6 0.06 1.52
4:53 pm 16:53 Cloudy with Mist and Fog 64 17.8 62 16.7 93 93 E 3 6 30.10 1019 5 8 0.06 1.52
5:53 pm 17:53 Cloudy with Mist and Fog 65 18.3 63 17.2 93 93 SE 5 7 30.08 1019 5 8 0.00 0.00
6:53 pm 18:53 Cloudy 66 18.9 63 17.2 90 90 SSE 6 9 30.06 1018 10 16 0.00 0.00
7:53 pm 19:53 Cloudy 66 18.9 62 16.7 87 87 SE 5 7 30.06 1018 10 16 0.00 0.00
8:53 pm 20:53 Cloudy 66 18.9 62 16.7 87 87 ESE 7 11 30.08 1019 10 16 0.00 0.00
9:53 pm 21:53 Cloudy 66 18.9 63 17.2 90 90 SE 6 9 30.10 1019 10 16 0.00 0.00
10:30 pm 22:30 Cloudy 66 18.9 63 17.2 90 90 SSE 6 9 30.09 1019 10 16 0.00 0.00
10:53 pm 22:53 Cloudy 66 18.9 63 17.2 90 90 SSE 3 6 30.10 1019 10 16 0.00 0.00
11:40 pm 23:40 Cloudy 66 18.9 63 17.2 90 90 SE 7 11 30.06 1018 9 14 0.00 0.00
11:53 pm 23:53 Cloudy 66 18.9 63 17.2 90 90 SSE 6 9 30.09 1019 9 14 0.00 0.00

Powered by AerisWeather